Location: Newark
(48.1500°N, 2.9667°W)
Time: 15:36:31
(UTC+00:00)

Altair - Pass Details

Date: 31 January 2020
Orbit: 1502 x 1682 km, 47.2° (Epoch: 24 February)

Event Time Altitude Azimuth Distance (km) Brightness Sun altitude
Rises 09:21:39 0° 259° (W) 4,880 9.8 12.7°
Reaches altitude 10° 09:24:46 10° 259° (W) 3,910 9.4 13.0°
Maximum altitude 09:34:53 85° 173° (S) 1,692 8.1 14.2°
Drops below altitude 10° 09:45:06 10° 87° (E) 3,938 10.3 15.3°
Sets 09:48:14 0° 87° (E) 4,916 10.7 15.6°
